This is the latest recevied weather packets stored in our database for station/object KMASWX. If no packets are shown the sender has not sent any weather packets the latest 10 day(s).
| Time | Temp. | Humidity | Pressure | Rain* | Wind** | Luminosity | Snow |
|---|---|---|---|---|---|---|---|
| 1778013676 | 25.56° C | 20% | - | 0 mm | - | - | - |
| 1778013372 | 25.56° C | 21% | - | 0 mm | - | - | - |
| 1778013066 | 25.56° C | 20% | - | 0 mm | - | - | - |
| 1778012762 | 26.11° C | 20% | - | 0 mm | - | - | - |
| 1778012458 | 25.56° C | 21% | - | 0 mm | - | - | - |
| 1778012152 | 25° C | 20% | - | 0 mm | - | - | - |
| 1778011848 | 25.56° C | 20% | - | 0 mm | - | - | - |
| 1778011544 | 25° C | 19% | - | 0 mm | - | - | - |
| 1778011237 | 25° C | 20% | - | 0 mm | - | - | - |
| 1778010934 | 25° C | 20% | - | 0 mm | - | - | - |
| 1778010326 | 23.89° C | 21% | - | 0 mm | - | - | - |
| 1778010023 | 23.89° C | 21% | - | 0 mm | - | - | - |
| 1778009413 | 23.33° C | 23% | - | 0 mm | - | - | - |
| 1778009109 | 23.89° C | 21% | - | 0 mm | - | - | - |
| 1778008802 | 23.89° C | 22% | - | 0 mm | - | - | - |
| 1778008499 | 23.33° C | 23% | - | 0 mm | - | - | - |
| 1778008195 | 23.33° C | 23% | - | 0 mm | - | - | - |
| 1778007891 | 23.33° C | 26% | - | 0 mm | - | - | - |
| 1778007585 | 22.22° C | 26% | - | 0 mm | - | - | - |
| 1778007281 | 22.22° C | 26% | - | 0 mm | - | - | - |
| 1778006670 | 22.78° C | 26% | - | 0 mm | - | - | - |
| 1778006367 | 22.78° C | 27% | - | 0 mm | - | - | - |
| 1778006063 | 22.22° C | 28% | - | 0 mm | - | - | - |
| 1778005760 | 22.22° C | 26% | - | 0 mm | - | - | - |
| 1778005149 | 21.11° C | 29% | - | 0 mm | - | - | - |
* Rain latest 24 hours (hover to see other rain measurements)
** Current wind speed in m/s (hover to see current wind gust speed)